• In Moldova, Republic
  • List of Countries
  • For 7 days
  • Water Temperature
  • Satellite Maps
  • Weather Map
  • Weather Widgets
  • user-avatar
    Login

    Hourly Weather Yastrebovka

    Today, 25 September, Tuesday

    Time Temperature Precipitation Wind Pressure Humidity
    00:00 +9°C° 0 mm 8 mps 732 mmHg 85%
    01:00 +8°C° 0 mm 7 mps 732 mmHg 84%
    02:00 +7°C° 0 mm 5 mps 732 mmHg 85%
    03:00 +7°C° 0 mm 6 mps 732 mmHg 84%
    04:00 +7°C° 0 mm 6 mps 733 mmHg 84%
    05:00 +6°C° 0 mm 7 mps 733 mmHg 84%
    06:00 +6°C° 0 mm 7 mps 734 mmHg 83%
    07:00 +6°C° 0 mm 7 mps 734 mmHg 82%
    08:00 +6°C° 0 mm 7 mps 734 mmHg 81%
    09:00 +8°C° 0.1 mm 7 mps 735 mmHg 79%
    10:00 +7°C° 0.1 mm 8 mps 735 mmHg 76%
    11:00 +7°C° 0.1 mm 8 mps 736 mmHg 74%
    12:00 +7°C° 0 mm 8 mps 737 mmHg 72%
    13:00 +7°C° 0 mm 8 mps 738 mmHg 71%
    14:00 +8°C° 0 mm 7 mps 739 mmHg 69%
    15:00 +8°C° 0 mm 7 mps 739 mmHg 70%
    16:00 +7°C° 0 mm 6 mps 740 mmHg 71%
    17:00 +7°C° 0 mm 6 mps 741 mmHg 72%
    18:00 +6°C° 0 mm 5 mps 741 mmHg 72%
    19:00 +6°C° 0 mm 5 mps 742 mmHg 72%
    20:00 +6°C° 0 mm 5 mps 742 mmHg 72%
    21:00 +6°C° 0 mm 5 mps 743 mmHg 74%
    22:00 +6°C° 0 mm 5 mps 744 mmHg 75%
    23:00 +6°C° 0 mm 5 mps 744 mmHg 76%

    Tomorrow, 26 September, Wednesday

    Time Temperature Precipitation Wind Pressure Humidity
    00:00 +5°C° 0 mm 4 mps 745 mmHg 79%
    01:00 +4°C° 0 mm 4 mps 745 mmHg 81%
    02:00 +4°C° 0 mm 4 mps 746 mmHg 83%
    03:00 +3°C° 0 mm 4 mps 746 mmHg 84%
    04:00 +3°C° 0 mm 4 mps 747 mmHg 86%
    05:00 +1°C° 0 mm 4 mps 747 mmHg 87%
    06:00 +3°C° 0 mm 4 mps 748 mmHg 83%
    07:00 +4°C° 0 mm 4 mps 749 mmHg 78%
    08:00 +3°C° 0 mm 5 mps 749 mmHg 74%
    09:00 +6°C° 0 mm 4 mps 749 mmHg 68%
    10:00 +7°C° 0 mm 4 mps 750 mmHg 62%
    11:00 +8°C° 0 mm 4 mps 750 mmHg 56%
    12:00 +8°C° 0 mm 4 mps 750 mmHg 53%
    13:00 +10°C° 0 mm 4 mps 750 mmHg 51%
    14:00 +10°C° 0 mm 4 mps 749 mmHg 49%
    15:00 +8°C° 0 mm 4 mps 749 mmHg 54%
    16:00 +9°C° 0 mm 3 mps 749 mmHg 59%
    17:00 +8°C° 0 mm 3 mps 749 mmHg 65%
    18:00 +7°C° 0 mm 3 mps 749 mmHg 67%
    19:00 +6°C° 0 mm 4 mps 749 mmHg 69%
    20:00 +6°C° 0 mm 5 mps 749 mmHg 71%
    21:00 +6°C° 0 mm 5 mps 748 mmHg 69%
    22:00 +5°C° 0 mm 6 mps 747 mmHg 67%
    23:00 +5°C° 0 mm 6 mps 747 mmHg 65%

    Day after tomorrow, 27 September, Thursday

    Time Temperature Precipitation Wind Pressure Humidity
    00:00 +5°C° 0.1 mm 7 mps 746 mmHg 64%
    01:00 +5°C° 0.1 mm 8 mps 745 mmHg 64%
    02:00 +5°C° 0.1 mm 8 mps 744 mmHg 64%
    03:00 +5°C° 0.7 mm 9 mps 743 mmHg 70%
    04:00 +3°C° 0.7 mm 10 mps 741 mmHg 75%
    05:00 +3°C° 0.7 mm 11 mps 740 mmHg 80%
    06:00 +3°C° 0.6 mm 11 mps 740 mmHg 82%
    07:00 +5°C° 0.6 mm 10 mps 739 mmHg 83%
    08:00 +5°C° 0.6 mm 10 mps 738 mmHg 85%
    09:00 +5°C° 0.4 mm 10 mps 738 mmHg 85%
    10:00 +6°C° 0.4 mm 9 mps 738 mmHg 86%
    11:00 +7°C° 0.4 mm 9 mps 737 mmHg 86%
    12:00 +7°C° 0.3 mm 9 mps 737 mmHg 85%
    13:00 +9°C° 0.3 mm 8 mps 737 mmHg 84%
    14:00 +9°C° 0.3 mm 8 mps 737 mmHg 84%
    15:00 +9°C° 0.1 mm 7 mps 738 mmHg 81%
    16:00 +9°C° 0.1 mm 6 mps 738 mmHg 79%
    17:00 +9°C° 0.1 mm 5 mps 738 mmHg 77%
    18:00 +8°C° 0 mm 5 mps 739 mmHg 78%
    19:00 +7°C° 0 mm 5 mps 740 mmHg 79%
    20:00 +6°C° 0 mm 4 mps 740 mmHg 81%
    21:00 +6°C° 0 mm 4 mps 741 mmHg 82%
    22:00 +6°C° 0 mm 5 mps 741 mmHg 84%
    23:00 +6°C° 0 mm 5 mps 741 mmHg 85%

    28 September, Friday

    Time Temperature Precipitation Wind Pressure Humidity
    00:00 +5°C° 0 mm 5 mps 741 mmHg 86%
    01:00 +5°C° 0 mm 4 mps 742 mmHg 88%
    02:00 +5°C° 0 mm 4 mps 742 mmHg 89%
    03:00 +4°C° 0 mm 4 mps 742 mmHg 90%
    04:00 +4°C° 0 mm 4 mps 742 mmHg 92%
    05:00 +4°C° 0 mm 4 mps 742 mmHg 93%
    06:00 +5°C° 0 mm 5 mps 741 mmHg 87%
    07:00 +5°C° 0 mm 6 mps 741 mmHg 81%
    08:00 +8°C° 0 mm 6 mps 741 mmHg 75%
    09:00 +9°C° 0 mm 7 mps 740 mmHg 72%
    10:00 +11°C° 0 mm 9 mps 739 mmHg 69%
    11:00 +12°C° 0 mm 10 mps 738 mmHg 66%
    12:00 +13°C° 0 mm 10 mps 738 mmHg 69%
    13:00 +13°C° 0 mm 10 mps 737 mmHg 72%
    14:00 +13°C° 0 mm 10 mps 736 mmHg 75%
    15:00 +13°C° 0.3 mm 10 mps 736 mmHg 78%
    16:00 +13°C° 0.3 mm 9 mps 735 mmHg 80%
    17:00 +13°C° 0.3 mm 9 mps 735 mmHg 83%
    18:00 +12°C° 0.6 mm 9 mps 736 mmHg 82%
    19:00 +11°C° 0.6 mm 8 mps 736 mmHg 81%
    20:00 +10°C° 0.6 mm 8 mps 737 mmHg 80%
    21:00 +8°C° 0 mm 7 mps 738 mmHg 82%
    22:00 +6°C° 0 mm 5 mps 740 mmHg 84%
    23:00 +5°C° 0 mm 4 mps 741 mmHg 86%

    29 September, Saturday

    Time Temperature Precipitation Wind Pressure Humidity
    00:00 +4°C° 0 mm 4 mps 742 mmHg 88%
    01:00 +3°C° 0 mm 3 mps 742 mmHg 90%
    02:00 +3°C° 0 mm 2 mps 743 mmHg 92%
    03:00 +3°C° 0 mm 2 mps 744 mmHg 93%
    04:00 +3°C° 0 mm 2 mps 744 mmHg 93%
    05:00 +2°C° 0 mm 2 mps 744 mmHg 93%
    06:00 +3°C° 0 mm 2 mps 745 mmHg 87%
    07:00 +4°C° 0 mm 2 mps 745 mmHg 82%
    08:00 +5°C° 0 mm 2 mps 746 mmHg 76%
    09:00 +6°C° 0 mm 2 mps 746 mmHg 69%
    10:00 +8°C° 0 mm 2 mps 747 mmHg 62%
    11:00 +9°C° 0 mm 2 mps 747 mmHg 56%
    12:00 +9°C° 0 mm 2 mps 747 mmHg 55%
    13:00 +9°C° 0 mm 2 mps 747 mmHg 55%
    14:00 +9°C° 0 mm 2 mps 747 mmHg 55%
    15:00 +9°C° 0 mm 2 mps 747 mmHg 60%
    16:00 +8°C° 0 mm 2 mps 747 mmHg 64%
    17:00 +8°C° 0 mm 1 mps 748 mmHg 69%
    18:00 +7°C° 0 mm 1 mps 748 mmHg 72%
    19:00 +7°C° 0 mm 1 mps 749 mmHg 74%
    20:00 +5°C° 0 mm 2 mps 750 mmHg 77%
    21:00 +4°C° 0 mm 2 mps 750 mmHg 78%
    22:00 +4°C° 0 mm 2 mps 750 mmHg 79%
    23:00 +3°C° 0 mm 2 mps 751 mmHg 80%

    30 September, Sunday

    Time Temperature Precipitation Wind Pressure Humidity
    00:00 +3°C° 0 mm 2 mps 751 mmHg 80%
    01:00 +2°C° 0 mm 2 mps 751 mmHg 79%
    02:00 +2°C° 0 mm 2 mps 752 mmHg 78%
    03:00 +3°C° 0 mm 1 mps 752 mmHg 77%
    04:00 +2°C° 0 mm 1 mps 752 mmHg 76%
    05:00 +2°C° 0 mm 1 mps 753 mmHg 75%
    06:00 +3°C° 0 mm 1 mps 753 mmHg 70%
    07:00 +4°C° 0 mm 1 mps 753 mmHg 65%
    08:00 +5°C° 0 mm 0 mps 753 mmHg 60%
    09:00 +7°C° 0 mm 1 mps 753 mmHg 57%
    10:00 +7°C° 0 mm 2 mps 753 mmHg 54%
    11:00 +8°C° 0 mm 2 mps 753 mmHg 51%
    12:00 +9°C° 0 mm 2 mps 753 mmHg 50%
    13:00 +9°C° 0 mm 3 mps 753 mmHg 48%
    14:00 +10°C° 0 mm 3 mps 752 mmHg 47%
    15:00 +9°C° 0 mm 3 mps 752 mmHg 51%
    16:00 +7°C° 0 mm 2 mps 752 mmHg 56%
    17:00 +6°C° 0 mm 2 mps 752 mmHg 61%
    18:00 +6°C° 0 mm 2 mps 752 mmHg 62%
    19:00 +5°C° 0 mm 2 mps 752 mmHg 63%
    20:00 +5°C° 0 mm 2 mps 752 mmHg 64%
    21:00 +4°C° 0 mm 2 mps 752 mmHg 65%
    22:00 +4°C° 0 mm 2 mps 752 mmHg 66%
    23:00 +4°C° 0 mm 2 mps 752 mmHg 67%
    Show more